This demonstration page uses our WeatherBlox Daily Observations layout. Learn more.

Left ArrowRight Arrow

34.02893, -84.19858

Hourly Observations for October 12, 2015

Temp ( °F °C ) Dew Point ( °F °C ) Humidity (%) Winds ( mph kmh ) Pressure ( in mb ) Visibility ( mi km ) Precip ( " mm )
12:34 am 00:34 Clear with Mist and Fog 56 13.3 56 13.3 100 100 Calm 29.94 1014 3 4 0.00 0.00
12:44 am 00:44 Clear with Mist and Fog 57 13.9 56 13.3 96 96 Calm 29.94 1014 5 8 0.00 0.00
12:53 am 00:53 Clear with Mist and Fog 56 13.3 56 13.3 100 100 Calm 29.93 1014 6 10 0.00 0.00
1:00 am 01:00 Clear with Mist and Fog 55 13 55 13 100 100 Calm 29.94 1014 2 3 0.00 0.00
1:09 am 01:09 Clear with Mist and Fog 56 13.3 56 13.3 100 100 Calm 29.94 1014 3 5 0.00 0.00
1:53 am 01:53 Clear with Mist and Fog 55 12.8 55 12.8 100 100 Calm 29.93 1014 2 3 0.00 0.00
2:03 am 02:03 Clear with Mist and Fog 55 13 55 13 100 100 Calm 29.94 1014 4 6 0.00 0.00
2:11 am 02:11 Partly Cloudy with Mist and Fog 56 13.3 56 13.3 100 100 Calm 29.94 1014 1 2 0.00 0.00
2:22 am 02:22 Mostly Cloudy 55 13 55 13 100 100 Calm 29.94 1014 8 13 0.00 0.00
2:53 am 02:53 Mostly Cloudy 56 13.3 55 12.8 97 97 Calm 29.93 1013 7 11 0.00 0.00
3:53 am 03:53 Mostly Cloudy with Mist and Fog 56 13.3 55 12.8 97 97 Calm 29.92 1013 5 8 0.00 0.00
4:16 am 04:16 Mostly Cloudy with Mist and Fog 55 13 55 13 100 100 Calm 29.94 1014 2 2 0.00 0.00
4:28 am 04:28 Partly Cloudy with Mist and Fog 55 13 55 13 100 100 Calm 29.94 1014 4 6 0.00 0.00
4:53 am 04:53 Mostly Cloudy with Mist and Fog 55 12.8 55 12.8 100 100 Calm 29.90 1013 5 8 0.00 0.00
5:38 am 05:38 Partly Cloudy with Mist and Fog 54 12 54 12 100 100 Calm 29.94 1014 5 8 0.00 0.00
5:53 am 05:53 Partly Cloudy with Mist and Fog 54 12.2 53 11.7 97 97 Calm 29.91 1013 4 6 0.00 0.00
5:57 am 05:57 Mostly Cloudy with Mist and Fog 54 12.2 54 12.2 100 100 Calm 29.94 1014 3 4 0.00 0.00
6:00 am 06:00 Mostly Cloudy with Mist and Fog 54 12 54 12 100 100 Calm 29.94 1014 1 1 0.00 0.00
6:07 am 06:07 Mostly Cloudy with Fog 54 12.2 54 12.2 100 100 Calm 29.94 1014 0 0 0.00 0.00
6:53 am 06:53 Mostly Cloudy with Fog 56 13.3 56 13.3 100 100 Calm 29.93 1013 0 0 0.00 0.00
7:53 am 07:53 Mostly Cloudy with Fog 57 13.9 57 13.9 100 100 Calm 29.94 1014 5 8 0.00 0.00
8:39 am 08:39 Cloudy with Mist and Fog 57 13.9 57 13.9 100 100 Calm 29.94 1014 1 1 0.00 0.00
8:53 am 08:53 Cloudy with Fog 57 13.9 57 13.9 100 100 Calm 29.93 1014 1 1 0.00 0.00
9:14 am 09:14 Cloudy with Fog 59 15 59 15 100 100 Calm 29.94 1014 1 1 0.00 0.00
9:30 am 09:30 Mostly Cloudy with Mist and Fog 59 15 59 15 100 100 Calm 29.94 1014 2 3 0.00 0.00
9:38 am 09:38 Mostly Cloudy with Mist and Fog 59 15 59 15 100 100 Calm 29.94 1014 6 10 0.00 0.00
9:53 am 09:53 Partly Cloudy with Mist and Fog 61 16.1 60 15.6 97 97 Calm 29.93 1014 6 10 0.00 0.00
10:53 am 10:53 Cloudy 66 18.9 60 15.6 81 81 VRB 7 11 29.94 1014 10 16 0.00 0.00
11:53 am 11:53 Cloudy 69 20.6 58 14.4 68 68 W 7 11 29.93 1014 10 16 0.00 0.00
12:53 pm 12:53 Mostly Cloudy 70 21.1 54 12.2 57 57 W 6 9 29.91 1013 10 16 0.00 0.00
1:53 pm 13:53 Mostly Sunny 73 22.8 55 12.8 53 53 WSW 7 11 29.89 1012 10 16 0.00 0.00
2:53 pm 14:53 Sunny 75 23.9 55 12.8 50 50 W 7 11 29.85 1011 10 16 0.00 0.00
3:53 pm 15:53 Sunny 75 23.9 55 12.8 50 50 SSW 8 13 29.83 1010 10 16 0.00 0.00
4:53 pm 16:53 Sunny 75 23.9 55 12.8 50 50 SSW 8 13 29.82 1010 10 16 0.00 0.00
5:53 pm 17:53 Sunny 74 23.3 55 12.8 52 52 SW 7 11 29.82 1010 10 16 0.00 0.00
6:53 pm 18:53 Sunny 70 21.1 56 13.3 61 61 SW 6 9 29.82 1010 10 16 0.00 0.00
7:53 pm 19:53 Clear 65 18.3 57 13.9 76 76 SSW 3 6 29.83 1010 10 16 0.00 0.00
8:53 pm 20:53 Clear 63 17.2 58 14.4 84 84 S 3 6 29.83 1010 10 16 0.00 0.00
9:53 pm 21:53 Clear 62 16.7 58 14.4 86 86 S 5 7 29.82 1010 10 16 0.00 0.00
10:53 pm 22:53 Clear 63 17.2 56 13.3 78 78 SW 6 9 29.81 1010 10 16 0.00 0.00
11:53 pm 23:53 Clear 61 16.1 56 13.3 84 84 S 3 6 29.81 1009 10 16 0.00 0.00

Powered by AerisWeather